Regional Weather Roundup
Issued by NWS

Home | Current Version | Previous Version | Graphics & Text | Print | Product List | Glossary On
Versions: 1 2 3 4 5 6 7 8 9 10 11 12 13 14 15 16 17 18 19 20 21 22 23 24 25 26 27 28 29 30 31 32 33 34 35 36 37 38 39 40 41 42 43 44 45 46 47 48 49 50
408
ASUS45 KCYS 300310
RWRWY

WYOMING REGIONAL WEATHER ROUNDUP
NATIONAL WEATHER SERVICE CHEYENNE WY
900 PM MDT THU SEP 29 2016

NOTE:  "FAIR" INDICATES FEW OR NO CLOUDS BELOW 12,000 FEET
WITH NO SIGNIFICANT WEATHER AND/OR OBSTRUCTIONS TO VISIBILITY.

WYZ001-300400-
YELLOWSTONE NATIONAL PARK

CITY           SKY/WX    TMP DP  RH WIND       PRES   REMARKS
LK YELLOWSTONE   N/A     45  42  89 W3        30.38F
W YELLOWSTONE  NOT AVBL

$$
WYZ002>013-054>058-071-098>099-300400-
NORTHERN WYOMING

CITY           SKY/WX    TMP DP  RH WIND       PRES   REMARKS
JACKSON        FAIR      46  46 100 N6        30.32S
CODY           FAIR      59  48  67 SW5       30.21F
GREYBULL       MOCLDY    66  50  56 NW13      30.15R THUNDER
WORLAND        FAIR      63  51  65 NW8       30.16R
SHERIDAN       FAIR      60  50  69 CALM      30.08R
BUFFALO        FAIR      70  44  39 W26G35    30.17R
GILLETTE       FAIR      67  47  48 S14       30.15S
HULETT         FAIR      73  43  33 S16G22    30.18R
NEWCASTLE      FAIR      68  41  37 E16G23    30.21R

$$
WYZ014>020-022>026-101>103-300400-
CENTRAL WYOMING

CITY           SKY/WX    TMP DP  RH WIND       PRES   REMARKS
BIG PINEY      FAIR      51  44  77 CALM      30.35R
PINEDALE       MOCLDY    52  46  82 CALM      30.36R
DUBOIS         FAIR      48  43  81 CALM      30.35S
LANDER         LGT RAIN  60  46  59 W9        30.24R
RIVERTON       MOCLDY    62  46  55 W15       30.25R
CASPER         FAIR      64  46  52 S18       30.25F
DOUGLAS        FAIR      62  44  51 CALM      30.25R

$$
WYZ021-027>030-104>119-300400-
SOUTHERN WYOMING

CITY           SKY/WX    TMP DP  RH WIND       PRES   REMARKS
EVANSTON       FAIR      57  41  55 SW6       30.34R
FORT BRIDGER   FAIR      59  42  52 CALM      30.37R
ROCK SPRINGS   FAIR      56  44  64 SE16G22   30.33R
DIXON          FAIR      55  48  78 CALM      30.41S
RAWLINS        FAIR      54  46  74 SE6       30.37S
SARATOGA       FAIR      48  45  87 W9        30.40S
LARAMIE        FAIR      53  44  71 E9        30.39S
CHEYENNE       FAIR      62  39  42 NW7       30.31R
TORRINGTON     FAIR      63  43  48 E13       30.21R
PINE BLUFFS    FAIR      63  37  39 SE21G28   30.25F

$$




USA.gov is the U.S. government's official web portal to all federal, state and local government web resources and services.